Tracking 19847 objects as of 16-Sep-2019
HD Live streaming from Space Station
objects crossing your sky now

FENGYUN 1C DEB

Track FENGYUN 1C DEB now!
10-day predictions


NORAD ID: 32154
Int'l Code: 1999-025CSY
Perigee: 521.2 km
Apogee: 581.6 km
Inclination: 99.0 °
Period: 95.5 minutes
Semi major axis: 6922 km
RCS: 0.0067 m2 (small)
Launch date: May 10, 1999
Source: People's Republic of China (PRC)
Launch site: Taiyaun Space Center, China (TSC)

Note: This is SATELLITE DEBRIS
aabbcc
Your satellite tracking list
Your tracking list is empty




NASA's NSSDC Master Catalog

Two Line Element Set (TLE):
1 32154U 99025CSY 19257.56569127  .00005840  00000-0  38351-3 0  9995
2 32154  99.0238  28.9784 0043671 306.7280  52.9936 15.07357119648510
Source of the keplerian elements: AFSPC